W0PE-1 Weather Reports


time (UTC)temp
C
wind
direction
speed
KPH
gust
KPH
rain 1hr
cm
rain 24hr
cm
rain mn
cm
humidity
%
barometer
mb
20260509104529 16 146 0.0 0.0 0.00 0.00 0.00 89 1012.5
20260509103023 16 146 0.0 0.0 0.00 0.00 0.00 89 1012.5
20260509101529 16 146 0.0 0.0 0.00 0.00 0.00 89 1012.6
20260509100022 16 146 0.0 0.0 0.00 0.00 0.00 89 1012.6
20260509094519 16 146 0.0 0.0 0.00 0.00 0.00 89 1012.7
20260509093019 16 146 0.0 1.6 0.00 0.00 0.00 89 1012.8
20260509091516 16 147 0.0 4.8 0.00 0.00 0.00 89 1012.9
20260509090016 16 148 0.0 3.2 0.00 0.00 0.00 88 1013.1
20260509084514 16 165 1.6 3.2 0.00 0.00 0.00 88 1013.1
20260509083015 16 209 0.0 0.0 0.00 0.00 0.00 88 1013.1
20260509081511 16 228 0.0 3.2 0.00 0.00 0.00 88 1013.3
20260509080010 16 251 0.0 4.8 0.00 0.00 0.00 88 1013.4
20260509074509 16 248 0.0 3.2 0.00 0.00 0.00 88 1013.5
20260509073008 16 246 0.0 4.8 0.00 0.00 0.00 87 1013.4
20260509071506 16 240 0.0 6.4 0.00 0.00 0.00 87 1013.4
20260509070004 16 215 0.0 3.2 0.00 0.00 0.00 87 1013.6
20260509064509 16 172 0.0 4.8 0.00 0.00 0.00 87 1013.7
20260509063003 16 232 0.0 4.8 0.00 0.00 0.00 86 1013.8
20260509061504 16 196 0.0 4.8 0.00 0.00 0.00 86 1013.8
20260509060004 16 202 0.0 1.6 0.00 0.00 0.00 85 1013.7
20260509054502 16 195 0.0 3.2 0.00 0.00 0.00 85 1013.8
20260509053002 16 215 0.0 1.6 0.00 0.00 0.00 84 1013.8
20260509051501 16 248 0.0 4.8 0.00 0.00 0.00 83 1013.9
20260509050101 17 242 0.0 3.2 0.00 0.00 0.00 82 1013.9
20260509044600 17 245 0.0 6.4 0.00 0.00 0.00 82 1013.8
20260509043104 17 235 1.6 4.8 0.00 0.00 0.00 80 1013.6
20260509041559 17 236 0.0 4.8 0.00 0.00 0.00 80 1013.4
20260509040100 17 186 0.0 3.2 0.00 0.00 0.00 79 1013.2
20260509034603 18 178 1.6 4.8 0.00 0.00 0.00 78 1013.1
20260509033058 18 185 1.6 8.0 0.00 0.00 0.00 77 1013.1
20260509031557 18 221 0.0 4.8 0.00 0.00 0.00 75 1013.0
20260509030057 19 231 1.6 11.3 0.00 0.00 0.00 74 1012.8
20260509024556 20 245 3.2 6.4 0.00 0.00 0.00 72 1012.5
20260509023056 20 179 3.2 6.4 0.00 0.00 0.00 71 1012.4
20260509021555 21 239 3.2 8.0 0.00 0.00 0.00 70 1012.2
20260509020055 21 181 3.2 12.9 0.00 0.00 0.00 68 1012.3
20260509014553 21 215 1.6 8.0 0.00 0.00 0.00 67 1012.2
20260509013053 22 234 4.8 14.5 0.00 0.00 0.00 66 1012.2
20260509011551 22 163 3.2 11.3 0.00 0.00 0.00 65 1012.1
20260509010051 23 202 3.2 14.5 0.00 0.00 0.00 63 1012.1
20260509004551 23 241 3.2 8.0 0.00 0.00 0.00 61 1012.0
20260509003049 24 177 3.2 9.7 0.00 0.00 0.00 61 1012.0
20260509001549 24 213 3.2 11.3 0.00 0.00 0.00 61 1012.0
20260509000048 24 236 1.6 11.3 0.00 0.00 0.00 60 1012.0
20260508234554 25 250 4.8 14.5 0.00 0.00 0.00 60 1012.1
20260508233049 25 226 3.2 9.7 0.00 0.00 0.00 59 1012.1
20260508231611 25 182 1.6 8.0 0.00 0.00 0.00 60 1012.2
20260508230055 25 203 3.2 11.3 0.00 0.00 0.00 59 1012.4
20260508224541 25 207 3.2 16.1 0.00 0.00 0.00 59 1012.6
20260508223043 25 252 6.4 14.5 0.00 0.00 0.00 60 1012.8
20260508221537 25 203 4.8 8.0 0.00 0.00 0.00 59 1013.0
20260508220038 25 163 3.2 12.9 0.00 0.00 0.00 60 1013.1
20260508214535 25 184 1.6 8.0 0.00 0.00 0.00 61 1013.2
20260508213031 25 202 3.2 11.3 0.00 0.00 0.00 61 1013.3
20260508211535 24 248 6.4 14.5 0.00 0.00 0.00 61 1013.4
20260508210028 25 234 6.4 14.5 0.00 0.00 0.00 61 1013.5
20260508204525 24 243 3.2 11.3 0.00 0.00 0.00 62 1013.8
20260508203027 24 256 4.8 14.5 0.00 0.00 0.00 62 1014.0
20260508201520 23 220 3.2 9.7 0.00 0.00 0.00 65 1014.1
20260508200016 23 260 3.2 9.7 0.00 0.00 0.00 65 1014.2
20260508194514 22 232 3.2 11.3 0.00 0.00 0.00 66 1014.4
20260508193015 22 284 1.6 8.0 0.00 0.00 0.00 67 1014.6
20260508191526 22 241 4.8 14.5 0.00 0.00 0.00 68 1014.8
20260508190007 21 240 4.8 11.3 0.00 0.00 0.00 70 1014.9
20260508184506 21 232 3.2 6.4 0.00 0.00 0.00 72 1015.0
20260508183004 21 185 3.2 11.3 0.00 0.00 0.00 74 1015.2
20260508181600 20 201 3.2 8.0 0.00 0.00 0.00 75 1015.3
20260508180124 20 222 3.2 11.3 0.00 0.00 0.00 79 1015.5
20260508174605 18 188 1.6 9.7 0.00 0.00 0.00 82 1015.6
20260508173051 18 171 1.6 6.4 0.00 0.00 0.00 84 1015.6
20260508171549 17 168 0.0 3.2 0.00 0.00 0.00 86 1015.6
20260508170046 17 168 1.6 8.0 0.00 0.00 0.00 88 1015.5
20260508164545 17 144 0.0 0.0 0.00 0.00 0.00 89 1015.6
20260508163042 16 133 0.0 3.2 0.00 0.00 0.00 90 1015.5
20260508161540 16 173 0.0 0.0 0.00 0.00 0.00 90 1015.6
20260508160039 16 173 0.0 0.0 0.00 0.00 0.00 90 1015.6
20260508154538 16 173 0.0 0.0 0.00 0.00 0.00 90 1015.6
20260508153038 15 173 0.0 0.0 0.00 0.00 0.00 91 1015.7
20260508151537 15 173 0.0 0.0 0.00 0.00 0.00 90 1015.8
20260508150036 15 173 0.0 0.0 0.00 0.00 0.00 90 1015.8
20260508144536 15 173 0.0 0.0 0.00 0.00 0.00 90 1015.8
20260508143034 15 173 0.0 1.6 0.00 0.00 0.00 90 1015.7
20260508141536 15 173 0.0 0.0 0.00 0.00 0.00 90 1015.7
20260508140032 15 173 0.0 0.0 0.00 0.00 0.00 90 1015.6
20260508134531 15 173 0.0 3.2 0.00 0.00 0.00 90 1015.6
20260508133030 15 173 0.0 1.6 0.00 0.00 0.00 89 1015.5
20260508131531 15 173 1.6 6.4 0.00 0.00 0.00 89 1015.4
20260508130028 15 173 1.6 4.8 0.00 0.00 0.00 89 1015.2
20260508124527 15 173 1.6 6.4 0.00 0.00 0.00 89 1015.1
20260508123028 15 173 1.6 6.4 0.00 0.00 0.00 89 1015.1
20260508121526 15 173 3.2 6.4 0.00 0.00 0.00 89 1014.9
20260508120033 15 172 1.6 6.4 0.00 0.00 0.00 88 1014.8
20260508114524 15 168 1.6 6.4 0.00 0.00 0.00 88 1014.8
20260508113023 15 155 0.0 3.2 0.00 0.00 0.00 88 1014.7
20260508111528 15 155 1.6 4.8 0.00 0.00 0.00 88 1014.7
20260508110022 15 207 0.0 1.6 0.00 0.00 0.00 88 1014.7